SL-14 DEB, 45346

Orbit data source: Space-Track

SL-14 DEB, 45346 is space debris in LEO originally from a launch on Thu, 15 Aug 1991 UTC launched from the Plesetsk Missile And Space Complex (PKMTR). Debris objects in space refer to the collection of defunct objects orbiting the Earth. Examples of debris include non-operational satellites, rocket bodies, and fragments generated from explosions, collisions, or faulty payload assembly.

Loading next visibility...
Identifier
45346, 1991-056CF
Orbit
LEO
Country
Flag of CISCIS
Related business
Manufacturer
Unknown
Mission
Spacecraft
Bus & Motor
Unknown
Mass
Unknown
Launch date (UTC)
1991-08-15 (34 years ago)
Launch vehicle
Unknown
Launch site
Plesetsk Missile And Space Complex (PKMTR)
Object type
Payload
Rocket body
Debris
Shape & HBR
Unknown shape, 0.1 m
Radar Cross Section
Small (<0.1 m²)

Expand to show TLE details & history
Last TLE update: 10 hours ago

TLE from 10 hours ago
0 SL-14 DEB
1 45346U 91056CF  25287.78879717  .00004074  00000-0  76934-2 0  9997
2 45346  82.6306 302.3613 0093142 120.5081 240.5289 13.36407742272652
Epoch: 2025-10-14T18:55Z
TLE epoch observation values (Epoch: 2025-10-14T18:55:52.075Z)
Latitude
-0.00004°
Longitude
-5.17788°
Altitude
1,160.397 km
Speed
7.256 km/s
True Right ascension
20h 09m 26s
True Declination
0° 00' 00"
Sunlit
Object was in daylight at epoch
Visualization orbit readout
Latitude
Unknown
Longitude
Unknown
Altitude
Unknown
Speed
Unknown
Apparent Right ascension
Unknown
Apparent Declination
Unknown
Sunlit
N/A
Visualization observer readout
Local Sidereal Time
23:23:08
Azimuth
Unknown
Elevation
Unknown
Doppler factor
Unknown
Orbital elements
Apogee altitude
1,189.743 km
Perigee altitude
1,050.067 km
Semi-major axis
7,498.042 km
Eccentricity
0.00931
Inclination
82.6306°
RAAN
302.3613°
Arg. of periapsis
120.5081°
True anomaly
239.60501°
Mean anomaly
240.5289°
Eccentric anomaly
240.06642°
Mean motion
3.34288 °/min
Orbital period
107.69 mins
BSTAR
0.0076934
Loading maneuver chart data...
Computing Atmospheric mass density...
Loading historical data...
Loading historical data...
Loading historical data...
Loading historical data...
Loading historical data...
Loading historical data...
Loading historical data...

Documentation

Showing up to 5 results
|